[[{"header":{"parameterUnit":"m.s-1","parameterCategory":1,"la1":30.2991,"la2":30.254,"lo1":-89.0895,"lo2":-89.0444,"dy":0.0017,"dx":0.0017,"nx":28,"ny":28,"refTime":"2024-05-07T21:00:00:Z","depth":0,"parameterNumber":2,"parameterNumberName":"U-component_of_WINDS"},"data":[0,0,0,0,0,0,0,0,0,0,0,0,0,0,0,0,0,0,0,0,0,0,0,0,0,0,0,0,0,0,0,0,0,0,0,0,0,0,0,0,0,0,0,0,0,0,0,0,0,0,0,0,0,0,0,0,0,0,-0.1676,-0.1676,0,-0.1662,-0.1662,-0.1662,-0.1665,-0.1665,-0.1665,-0.1665,-0.1651,-0.165,-0.165,0,0,0,0,0,0,0,0,0,0,0,0,0,-0.1707,-0.1707,-0.1676,-0.1676,-0.1676,-0.1662,-0.1662,-0.1662,-0.1665,-0.1665,-0.1665,-0.1666,-0.1651,-0.165,-0.165,0,0,0,0,0,0,0,0,0,0,0,0,0,-0.1693,-0.1706,-0.1676,-0.1676,-0.1675,-0.1662,-0.1662,-0.1662,-0.1665,-0.1665,-0.1665,-0.1666,-0.1651,-0.1651,-0.165,-0.1636,0,0,-0.1647,-0.1646,0,0,0,0,0,0,0,0,-0.1694,-0.1692,-0.1676,-0.1676,-0.1675,-0.1666,-0.1668,-0.1653,-0.1664,-0.1669,-0.1665,-0.1666,-0.1656,-0.1654,-0.1651,-0.1635,-0.1635,-0.1647,-0.1646,-0.1646,-0.1645,0,0,0,0,0,0,0,-0.1695,-0.1693,-0.1671,-0.1676,-0.1675,-0.1677,-0.1675,-0.1665,-0.166,-0.1668,-0.1669,-0.1667,-0.1655,-0.1652,-0.165,-0.1635,-0.1647,-0.1646,-0.1645,-0.1645,-0.1609,-0.1609,0,0,0,0,0,0,-0.1696,-0.1694,-0.1671,-0.167,-0.1686,-0.1676,-0.1674,-0.1668,-0.166,-0.1659,-0.1667,-0.1667,-0.1653,-0.1652,-0.165,-0.1635,-0.1646,-0.1645,-0.1644,-0.161,-0.1609,-0.1609,0,0,0,0,0,0,-0.1697,-0.1694,-0.1672,-0.1682,-0.1679,-0.1675,-0.1668,-0.1668,-0.1664,-0.1659,-0.1658,-0.1663,-0.1653,-0.1651,-0.164,-0.1634,-0.1644,-0.1644,-0.161,-0.161,-0.1609,-0.1603,0,0,0,0,0,0,-0.1698,-0.1694,-0.1689,-0.1682,-0.1679,-0.1661,-0.1668,-0.1667,-0.1662,-0.1663,-0.1656,-0.1655,-0.1654,-0.1641,-0.1639,-0.1633,-0.1643,-0.1611,-0.161,-0.1609,-0.1604,-0.1603,-0.1601,0,0,0,0,0,-0.1699,-0.1687,-0.1688,-0.1686,-0.1671,-0.1661,-0.1659,-0.1658,-0.1662,-0.1657,-0.1654,-0.1655,-0.1635,-0.164,-0.1638,-0.1631,-0.1611,-0.161,-0.1609,-0.1605,-0.1603,-0.1601,0,0,0,0,0,0,-0.1693,-0.1686,-0.1687,-0.1673,-0.1668,-0.1661,-0.1654,-0.1656,-0.1649,-0.165,-0.1648,-0.1647,-0.1636,-0.1632,-0.1638,-0.1619,-0.1624,-0.1622,-0.1621,-0.1619,-0.1618,-0.1619,-0.1642,0,0,0,0,0,-0.169,-0.1682,-0.1676,-0.1664,-0.1662,-0.1659,-0.1654,-0.1654,-0.1648,-0.1645,-0.1642,-0.1636,-0.1629,-0.1624,-0.1617,-0.1604,-0.1603,-0.1598,-0.1597,-0.1596,-0.1595,-0.1589,-0.1588,-0.1606,-0.1606,-0.1606,0,0,-0.1683,-0.1679,-0.1673,-0.1663,-0.1659,-0.1651,-0.1656,-0.1647,-0.1642,-0.1644,-0.1633,-0.1631,-0.1625,-0.1613,-0.1607,-0.161,-0.159,-0.1595,-0.1594,-0.1594,-0.1588,-0.1586,-0.1585,-0.1606,-0.1606,-0.1606,0,0,-0.1668,-0.1663,-0.1653,-0.1649,-0.1643,-0.1642,-0.1639,-0.1634,-0.1632,-0.1621,-0.1623,-0.1617,-0.1604,-0.16,-0.1597,-0.1582,-0.1584,-0.158,-0.1573,-0.1568,-0.1566,-0.1565,-0.1561,-0.1559,-0.1579,-0.1579,-0.1579,0,-0.166,-0.1648,-0.1648,-0.1639,-0.1635,-0.1638,-0.1628,-0.1625,-0.1616,-0.1614,-0.1617,-0.1602,-0.1598,-0.1586,-0.1583,-0.158,-0.1578,-0.158,-0.1567,-0.1565,-0.1564,-0.156,-0.1558,-0.1578,-0.1578,-0.1579,-0.1579,0,-0.1641,-0.1632,-0.1625,-0.1618,-0.1613,-0.1604,-0.1603,-0.1599,-0.1599,-0.1598,-0.1588,-0.1584,-0.1576,-0.1574,-0.1574,-0.1562,-0.1564,-0.1567,-0.1572,-0.1562,-0.1558,-0.1557,-0.1578,-0.1578,-0.1578,-0.1578,0,0,-0.1619,-0.1613,-0.1611,-0.1608,-0.1603,-0.1597,-0.1589,-0.1582,-0.1579,-0.1574,-0.1567,-0.1558,-0.1561,-0.1557,-0.1557,-0.1552,-0.1542,-0.1555,-0.1555,-0.1554,-0.1531,-0.1529,-0.1527,-0.1544,-0.1543,-0.1543,-0.1531,0,-0.1604,-0.1589,-0.159,-0.1576,-0.157,-0.1573,-0.1567,-0.1563,-0.1562,-0.1556,-0.1555,-0.1549,-0.1553,-0.1551,-0.1546,-0.1544,-0.1538,-0.1545,-0.1538,-0.1538,-0.154,-0.1525,-0.1522,-0.1511,-0.153,-0.153,-0.1529,0,-0.1583,-0.1578,-0.1565,-0.1562,-0.1559,-0.1553,-0.1548,-0.1543,-0.1539,-0.1539,-0.1535,-0.1537,-0.153,-0.1536,-0.1526,-0.1531,-0.1529,-0.1528,-0.1528,-0.1527,-0.1533,-0.1524,-0.1508,-0.1506,-0.1527,-0.1527,-0.1527,0,-0.157,-0.156,-0.1551,-0.1549,-0.1545,-0.1541,-0.1539,-0.1536,-0.1533,-0.1529,-0.1527,-0.1522,-0.1519,-0.1516,-0.1516,-0.152,-0.1507,-0.1513,-0.1507,-0.1507,-0.1504,-0.1504,-0.1487,-0.1502,-0.1502,-0.1502,-0.1502,0,-0.1553,-0.1544,-0.1545,-0.154,-0.1531,-0.1532,-0.1524,-0.1523,-0.1521,-0.1516,-0.1518,-0.1513,-0.1514,-0.151,-0.151,-0.1503,-0.1502,-0.1502,-0.1502,-0.1501,-0.1502,-0.15,-0.1501,-0.1502,-0.1502,-0.1502,-0.1502,0,-0.1536,-0.1536,-0.1527,-0.1525,-0.1524,-0.1518,-0.1517,-0.1512,-0.1512,-0.1506,-0.1504,-0.1504,-0.1499,-0.1499,-0.1493,-0.1494,-0.1485,-0.1486,-0.1487,-0.1487,-0.1482,-0.1482,-0.1463,-0.1461,-0.1477,-0.1477,-0.1477,0,-0.1525,-0.1519,-0.1517,-0.1514,-0.1512,-0.1507,-0.1504,-0.1506,-0.1503,-0.15,-0.1496,-0.1491,-0.1487,-0.148,-0.1479,-0.1475,-0.1476,-0.147,-0.1476,-0.1476,-0.1477,-0.1477,-0.1477,-0.1469,-0.1468,-0.1468,-0.1468,0,-0.1506,-0.1507,-0.1502,-0.1499,-0.1495,-0.1492,-0.149,-0.1487,-0.1489,-0.1485,-0.1481,-0.1478,-0.1473,-0.1469,-0.1465,-0.1464,-0.1467,-0.1467,-0.1465,-0.1465,-0.1466,-0.1466,-0.1484,-0.1467,-0.1467,-0.1467,-0.1467,-0.1467,-0.1492,-0.1488,-0.1486,-0.1481,-0.148,-0.1478,-0.1474,-0.1474,-0.147,-0.1466,-0.1468,-0.1463,-0.1461,-0.1457,-0.1456,-0.1452,-0.1454,-0.1452,-0.1452,-0.1451,-0.1451,-0.1466,-0.1452,-0.1452,-0.1452,-0.1452,-0.1452,0,-0.1474,-0.1473,-0.1469,-0.1466,-0.1463,-0.1466,-0.1464,-0.1461,-0.1457,-0.1456,-0.1452,-0.1448,-0.1444,-0.1444,-0.1441,-0.1439,-0.144,-0.1438,-0.1438,-0.1438,-0.1449,-0.1451,-0.1437,-0.1437,-0.1437,-0.1437,-0.1437,-0.1437,-0.1464,-0.1457,-0.1458,-0.1451,-0.145,-0.1446,-0.1444,-0.1443,-0.1442,-0.1437,-0.1434,-0.1434,-0.1434,-0.1431,-0.1428,-0.1428,-0.1427,-0.1425,-0.1426,-0.1436,-0.1437,-0.1438,-0.144,-0.1425,-0.1425,-0.1415,-0.1415,-0.1415]},{"header":{"parameterUnit":"m.s-1","parameterCategory":1,"la1":30.2991,"la2":30.254,"lo1":-89.0895,"lo2":-89.0444,"dy":0.0017,"dx":0.0017,"nx":28,"ny":28,"refTime":"2024-05-07T21:00:00:Z","depth":0,"parameterNumber":3,"parameterNumberName":"V-component_of_WINDS"},"data":[0,0,0,0,0,0,0,0,0,0,0,0,0,0,0,0,0,0,0,0,0,0,0,0,0,0,0,0,0,0,0,0,0,0,0,0,0,0,0,0,0,0,0,0,0,0,0,0,0,0,0,0,0,0,0,0,0,0,6.0692,6.0693,0,6.0794,6.0795,6.0796,6.0764,6.0762,6.0759,6.0757,6.0853,6.0858,6.0862,0,0,0,0,0,0,0,0,0,0,0,0,0,6.0462,6.0467,6.0692,6.0693,6.0695,6.0793,6.0795,6.0796,6.0764,6.0761,6.0759,6.0756,6.0852,6.0857,6.0862,0,0,0,0,0,0,0,0,0,0,0,0,0,6.0562,6.0468,6.0692,6.0691,6.0692,6.0793,6.0795,6.0797,6.0765,6.0761,6.0758,6.0755,6.085,6.0856,6.0863,6.0969,0,0,6.0884,6.0887,0,0,0,0,0,0,0,0,6.0557,6.0571,6.069,6.0691,6.0692,6.0763,6.0749,6.0854,6.0765,6.0737,6.0757,6.0754,6.0825,6.0834,6.086,6.0974,6.0978,6.0885,6.0889,6.0892,6.0894,0,0,0,0,0,0,0,6.055,6.0566,6.0732,6.0691,6.0693,6.0682,6.0693,6.0769,6.0797,6.0739,6.0737,6.075,6.0825,6.0853,6.0862,6.0979,6.0884,6.089,6.0895,6.0897,6.1184,6.1188,0,0,0,0,0,0,6.0543,6.0561,6.0729,6.0735,6.0616,6.0689,6.0701,6.0743,6.0797,6.0802,6.0752,6.0748,6.0843,6.0854,6.0865,6.0992,6.0892,6.0898,6.0902,6.1181,6.1185,6.1189,0,0,0,0,0,0,6.0539,6.0559,6.0725,6.0648,6.0668,6.0697,6.0744,6.0747,6.0775,6.0807,6.0811,6.0776,6.0841,6.0855,6.0944,6.0995,6.0901,6.0907,6.1177,6.1182,6.1187,6.1247,0,0,0,0,0,0,6.0532,6.0557,6.06,6.0649,6.0672,6.0805,6.0747,6.0751,6.0788,6.0783,6.083,6.0835,6.084,6.0934,6.0951,6.1002,6.0913,6.1172,6.1179,6.1186,6.1241,6.1254,6.1265,0,0,0,0,0,6.0524,6.0611,6.0602,6.0623,6.0727,6.0808,6.0821,6.0827,6.0792,6.0834,6.0854,6.0833,6.0987,6.0943,6.0962,6.1016,6.1169,6.1177,6.1185,6.1235,6.1252,6.1265,0,0,0,0,0,0,6.0564,6.0618,6.0608,6.0714,6.0757,6.0802,6.0855,6.0844,6.0895,6.0888,6.089,6.0901,6.0992,6.1013,6.0964,6.1121,6.1072,6.1084,6.1104,6.112,6.1132,6.1124,6.0918,0,0,0,0,0,6.0586,6.0651,6.0692,6.0782,6.0804,6.0826,6.0862,6.0863,6.0906,6.0923,6.095,6.099,6.1048,6.1085,6.1139,6.1244,6.1253,6.1291,6.1303,6.1313,6.1323,6.1378,6.1395,6.1215,6.1215,6.1215,0,0,6.0631,6.0668,6.0708,6.0791,6.0824,6.0888,6.0841,6.0911,6.0958,6.0933,6.1019,6.104,6.1085,6.1182,6.1226,6.1202,6.1374,6.1323,6.1331,6.1335,6.1388,6.1405,6.142,6.1221,6.122,6.1219,0,0,6.0744,6.078,6.0858,6.0893,6.0945,6.0959,6.0978,6.1025,6.1039,6.1126,6.1109,6.1163,6.1262,6.1294,6.1324,6.1451,6.1433,6.1468,6.1531,6.1585,6.1599,6.1612,6.1655,6.1671,6.1478,6.1478,6.1478,0,6.0792,6.0891,6.0899,6.0971,6.1007,6.099,6.1068,6.11,6.1166,6.119,6.1163,6.1287,6.1316,6.142,6.1451,6.1476,6.1496,6.1462,6.1597,6.161,6.1621,6.1663,6.168,6.1482,6.1482,6.1481,6.1481,0,6.0946,6.1015,6.1071,6.1139,6.1181,6.1255,6.1272,6.1313,6.1311,6.1327,6.1414,6.1449,6.151,6.1535,6.1532,6.1638,6.1622,6.1596,6.1547,6.1642,6.1681,6.1697,6.1488,6.1486,6.1485,6.1484,0,0,6.1087,6.1159,6.118,6.121,6.1266,6.1318,6.139,6.1452,6.1487,6.1533,6.1592,6.1677,6.1653,6.1687,6.1687,6.1735,6.1832,6.1703,6.1704,6.1725,6.1949,6.1967,6.1985,6.1821,6.1824,6.1826,6.1945,0,6.1205,6.1336,6.1345,6.1462,6.1524,6.1509,6.1572,6.1611,6.1629,6.1681,6.1699,6.1758,6.1724,6.1744,6.1791,6.181,6.1876,6.1802,6.1873,6.1876,6.1861,6.2006,6.2026,6.2135,6.196,6.1963,6.1965,0,6.136,6.1413,6.1537,6.1585,6.1611,6.1667,6.1725,6.1777,6.182,6.1829,6.1868,6.1861,6.1933,6.1882,6.1979,6.1929,6.1958,6.1972,6.1976,6.1982,6.1925,6.2014,6.2171,6.2187,6.1989,6.1987,6.1985,0,6.1448,6.1551,6.1639,6.1665,6.1723,6.1762,6.1788,6.1829,6.1866,6.1915,6.1938,6.1994,6.2025,6.2067,6.2075,6.2038,6.2172,6.2122,6.2179,6.2179,6.2207,6.2205,6.2369,6.2228,6.2228,6.2228,6.2227,0,6.1578,6.1654,6.1679,6.1733,6.1817,6.1826,6.1907,6.1929,6.1966,6.2022,6.2012,6.2063,6.2072,6.2124,6.2131,6.221,6.2224,6.2231,6.2231,6.2231,6.223,6.225,6.2241,6.2232,6.2231,6.223,6.223,0,6.1691,6.1712,6.1805,6.1853,6.1867,6.1926,6.1966,6.2016,6.2032,6.2102,6.2119,6.2143,6.2205,6.2218,6.229,6.2295,6.2388,6.2381,6.2374,6.2373,6.2428,6.2422,6.261,6.2634,6.2479,6.248,6.2482,0,6.1772,6.183,6.1885,6.1923,6.1951,6.2012,6.205,6.206,6.21,6.2154,6.2197,6.2258,6.2308,6.2406,6.2429,6.2484,6.2478,6.254,6.2486,6.2483,6.2477,6.2473,6.2478,6.2549,6.2551,6.2552,6.2553,0,6.1912,6.192,6.1977,6.2038,6.2084,6.2131,6.2176,6.2207,6.2223,6.2267,6.2332,6.237,6.2445,6.2505,6.256,6.2583,6.257,6.2571,6.2586,6.2586,6.2579,6.2582,6.24,6.2566,6.2565,6.2564,6.2563,6.2562,6.2011,6.2062,6.2109,6.2172,6.2208,6.225,6.2299,6.2323,6.2377,6.2441,6.2443,6.2513,6.2554,6.2627,6.2654,6.2707,6.2687,6.271,6.2716,6.2721,6.2725,6.2572,6.2717,6.2716,6.2716,6.2716,6.2715,0,6.215,6.218,6.2238,6.2303,6.2352,6.2339,6.2388,6.2429,6.2491,6.2532,6.2582,6.2655,6.2713,6.2741,6.2798,6.2835,6.283,6.2849,6.2846,6.2851,6.274,6.2721,6.2852,6.2852,6.2852,6.2852,6.2852,6.2852,6.2228,6.2314,6.2327,6.2428,6.2457,6.2527,6.2556,6.2594,6.2627,6.271,6.276,6.2778,6.2813,6.2873,6.2924,6.2931,6.2951,6.2973,6.2976,6.2872,6.2859,6.2845,6.2827,6.2978,6.2978,6.3082,6.3083,6.3084]}]]